TimeCDT,TemperatureF,Dew PointF,Humidity,Sea Level PressureIn,VisibilityMPH,Wind Direction,Wind SpeedMPH,Gust SpeedMPH,PrecipitationIn,Events,Conditions,WindDirDegrees,DateUTC
12:15 AM,72.7,68.2,86,29.90,10.0,ENE,3.5,-,N/A,,Scattered Clouds,70,2013-06-24 05:15:00
12:35 AM,73.0,68.4,85,29.89,10.0,ENE,5.8,-,N/A,,Overcast,60,2013-06-24 05:35:00
12:55 AM,72.5,68.5,87,29.88,10.0,ENE,5.8,-,N/A,,Scattered Clouds,60,2013-06-24 05:55:00
1:15 AM,72.5,68.9,88,29.87,10.0,ENE,3.5,-,N/A,,Scattered Clouds,60,2013-06-24 06:15:00
1:35 AM,72.3,68.9,89,29.87,10.0,NE,5.8,-,N/A,,Mostly Cloudy,50,2013-06-24 06:35:00
1:55 AM,72.5,68.9,88,29.88,10.0,ENE,8.1,-,N/A,,Overcast,70,2013-06-24 06:55:00
2:15 AM,72.7,69.3,89,29.88,10.0,ENE,9.2,-,N/A,,Overcast,70,2013-06-24 07:15:00
2:35 AM,72.9,69.4,89,29.88,10.0,ENE,10.4,-,N/A,,Overcast,70,2013-06-24 07:35:00
2:55 AM,72.5,69.4,90,29.88,10.0,East,10.4,-,N/A,,Mostly Cloudy,80,2013-06-24 07:55:00
3:15 AM,72.5,69.4,90,29.88,10.0,East,6.9,-,N/A,,Scattered Clouds,100,2013-06-24 08:15:00
3:35 AM,72.5,69.8,91,29.87,10.0,ESE,10.4,-,N/A,,Scattered Clouds,110,2013-06-24 08:35:00
3:55 AM,72.7,69.8,91,29.89,10.0,SE,4.6,-,N/A,,Scattered Clouds,130,2013-06-24 08:55:00
4:15 AM,72.7,69.8,91,29.88,10.0,East,8.1,-,N/A,,Mostly Cloudy,100,2013-06-24 09:15:00
4:35 AM,72.7,69.8,91,29.88,10.0,ESE,9.2,-,N/A,,Scattered Clouds,110,2013-06-24 09:35:00
4:55 AM,72.9,69.4,89,29.88,10.0,SSE,5.8,-,N/A,,Scattered Clouds,150,2013-06-24 09:55:00
5:15 AM,73.0,69.3,88,29.89,10.0,SE,5.8,-,N/A,,Mostly Cloudy,130,2013-06-24 10:15:00
5:35 AM,72.9,69.4,89,29.88,10.0,SE,4.6,-,N/A,,Overcast,140,2013-06-24 10:35:00
5:55 AM,73.4,69.1,86,29.88,10.0,ESE,4.6,-,0.01,Thunderstorm,Overcast,110,2013-06-24 10:55:00
6:15 AM,72.9,69.3,88,29.86,10.0,ESE,10.4,-,N/A,,Overcast,110,2013-06-24 11:15:00
6:35 AM,72.9,69.3,88,29.87,10.0,ESE,10.4,-,N/A,,Mostly Cloudy,120,2013-06-24 11:35:00
6:55 AM,73.4,69.8,88,29.87,10.0,SE,8.1,-,N/A,,Mostly Cloudy,140,2013-06-24 11:55:00
7:15 AM,72.9,69.3,88,29.88,10.0,South,5.8,-,N/A,Thunderstorm,Scattered Clouds,170,2013-06-24 12:15:00
7:35 AM,73.4,69.3,87,29.89,10.0,SSE,5.8,-,N/A,Thunderstorm,Mostly Cloudy,160,2013-06-24 12:35:00
7:55 AM,73.8,68.9,85,29.90,10.0,SSE,8.1,-,N/A,Thunderstorm,Overcast,160,2013-06-24 12:55:00
8:15 AM,73.6,68.9,85,29.90,10.0,South,9.2,-,N/A,,Overcast,170,2013-06-24 13:15:00
8:35 AM,73.9,69.1,85,29.89,10.0,SE,6.9,-,N/A,,Overcast,140,2013-06-24 13:35:00
8:55 AM,74.8,69.6,84,29.89,10.0,SSE,8.1,-,N/A,,Scattered Clouds,160,2013-06-24 13:55:00
9:15 AM,75.7,70.0,82,29.90,10.0,South,9.2,-,N/A,,Scattered Clouds,170,2013-06-24 14:15:00
9:35 AM,75.2,69.8,83,29.93,10.0,SSW,8.1,-,N/A,,Overcast,210,2013-06-24 14:35:00
9:55 AM,74.7,70.0,85,29.98,10.0,SSW,17.3,-,0.02,Thunderstorm,Overcast,210,2013-06-24 14:55:00
10:15 AM,68.2,62.8,83,29.94,7.0,South,17.3,-,0.07,Rain-Thunderstorm,Thunderstorms and Rain,170,2013-06-24 15:15:00
10:35 AM,66.4,61.7,85,29.87,10.0,ESE,21.9,27.6,0.09,Rain-Thunderstorm,Light Thunderstorms and Rain,120,2013-06-24 15:35:00
10:55 AM,68.2,60.3,76,29.76,10.0,ESE,21.9,26.5,0.11,Rain-Thunderstorm,Light Thunderstorms and Rain,120,2013-06-24 15:55:00
11:15 AM,68.2,60.1,75,29.72,10.0,ESE,20.7,29.9,N/A,,Scattered Clouds,120,2013-06-24 16:15:00
11:35 AM,68.4,61.0,77,29.74,10.0,ESE,16.1,29.9,N/A,,Clear,120,2013-06-24 16:35:00
11:55 AM,70.3,61.2,73,29.78,10.0,SSE,8.1,18.4,N/A,,Clear,150,2013-06-24 16:55:00
12:15 PM,70.5,61.7,74,29.84,10.0,SW,5.8,9.2,N/A,,Clear,230,2013-06-24 17:15:00
12:35 PM,72.9,62.6,70,29.84,10.0,SW,4.6,-,N/A,,Clear,220,2013-06-24 17:35:00
12:55 PM,73.9,63.3,69,29.85,10.0,SSW,3.5,-,N/A,,Clear,200,2013-06-24 17:55:00
1:15 PM,73.9,63.0,68,29.84,10.0,SE,3.5,-,N/A,,Clear,130,2013-06-24 18:15:00
1:35 PM,74.7,63.7,69,29.83,10.0,East,5.8,-,N/A,,Clear,80,2013-06-24 18:35:00
1:55 PM,74.8,64.2,69,29.84,10.0,East,3.5,-,N/A,,Scattered Clouds,100,2013-06-24 18:55:00
2:15 PM,75.4,65.5,71,29.84,10.0,SE,3.5,-,N/A,,Mostly Cloudy,130,2013-06-24 19:15:00
2:35 PM,76.5,66.4,71,29.84,10.0,South,4.6,-,N/A,,Mostly Cloudy,180,2013-06-24 19:35:00
2:55 PM,77.4,67.3,71,29.84,10.0,SSE,6.9,-,N/A,,Scattered Clouds,150,2013-06-24 19:55:00
3:15 PM,78.3,67.5,69,29.83,10.0,South,12.7,-,N/A,,Clear,170,2013-06-24 20:15:00
3:35 PM,79.3,68.0,68,29.83,10.0,SSE,11.5,-,N/A,,Scattered Clouds,160,2013-06-24 20:35:00
3:55 PM,79.7,66.7,64,29.82,10.0,SSE,16.1,21.9,N/A,,Mostly Cloudy,160,2013-06-24 20:55:00
4:15 PM,81.0,68.0,65,29.81,10.0,SSE,13.8,19.6,N/A,,Scattered Clouds,160,2013-06-24 21:15:00
4:35 PM,81.5,68.9,65,29.81,10.0,SSE,15.0,20.7,N/A,,Clear,160,2013-06-24 21:35:00
4:55 PM,81.1,69.8,68,29.80,10.0,SSE,17.3,-,N/A,,Clear,160,2013-06-24 21:55:00
5:15 PM,81.5,70.0,68,29.80,10.0,SSE,11.5,20.7,N/A,,Clear,150,2013-06-24 22:15:00
5:35 PM,81.3,70.2,69,29.79,10.0,SSE,16.1,-,N/A,,Clear,150,2013-06-24 22:35:00
5:55 PM,81.5,70.2,68,29.79,10.0,SSE,15.0,21.9,N/A,,Clear,150,2013-06-24 22:55:00
6:15 PM,81.5,70.7,70,29.78,10.0,SSE,15.0,19.6,N/A,,Clear,150,2013-06-24 23:15:00
6:35 PM,81.0,70.9,71,29.78,10.0,SE,13.8,20.7,N/A,,Clear,140,2013-06-24 23:35:00
6:55 PM,80.6,70.7,72,29.77,10.0,SE,12.7,18.4,N/A,,Clear,140,2013-06-24 23:55:00
7:15 PM,80.4,70.9,73,29.77,10.0,SE,11.5,17.3,N/A,,Clear,140,2013-06-25 00:15:00
7:35 PM,79.9,70.5,73,29.77,10.0,SE,12.7,-,N/A,,Clear,140,2013-06-25 00:35:00
7:55 PM,79.7,70.7,74,29.78,10.0,SE,9.2,-,N/A,,Scattered Clouds,140,2013-06-25 00:55:00
8:15 PM,79.3,70.3,74,29.78,10.0,SE,9.2,-,N/A,,Mostly Cloudy,140,2013-06-25 01:15:00
8:35 PM,78.8,70.2,75,29.77,10.0,SSE,12.7,-,N/A,,Scattered Clouds,150,2013-06-25 01:35:00
8:55 PM,78.3,70.2,76,29.77,10.0,SE,11.5,17.3,N/A,,Clear,140,2013-06-25 01:55:00
9:15 PM,77.9,70.0,76,29.77,10.0,SSE,11.5,16.1,N/A,,Clear,150,2013-06-25 02:15:00
9:35 PM,77.4,69.8,77,29.77,10.0,SSE,12.7,20.7,N/A,,Clear,150,2013-06-25 02:35:00
9:55 PM,77.9,69.6,76,29.78,10.0,SSE,11.5,18.4,N/A,,Clear,150,2013-06-25 02:55:00
10:15 PM,77.5,69.4,76,29.78,10.0,SSE,11.5,-,N/A,,Clear,150,2013-06-25 03:15:00
10:35 PM,77.5,68.9,75,29.78,10.0,SSE,15.0,19.6,N/A,,Clear,160,2013-06-25 03:35:00
10:55 PM,77.4,68.4,74,29.78,10.0,SSE,10.4,-,N/A,,Clear,150,2013-06-25 03:55:00
11:15 PM,77.5,67.6,71,29.78,10.0,SSE,13.8,-,N/A,,Clear,150,2013-06-25 04:15:00
11:35 PM,77.9,66.6,68,29.76,10.0,SSE,15.0,19.6,N/A,,Clear,150,2013-06-25 04:35:00
11:55 PM,77.5,66.4,68,29.75,10.0,SSE,13.8,-,N/A,,Clear,150,2013-06-25 04:55:00